KD5NDU-15 Weather Reports


time (UTC)temp
F
wind
direction
speed
knots
gust
knots
rain 1hr
in
rain 24hr
in
rain mn
in
humidity
%
barometer
mb
20260906004130 92 77 0.0 1.7 0.00 0.00 0.00 57 1011.2
20260906003630 93 77 0.0 0.9 0.00 0.00 0.00 56 1011.2
20260906003130 93 77 0.0 0.0 0.00 0.00 0.00 56 1011.2
20260906002630 93 77 0.0 0.9 0.00 0.00 0.00 55 1011.3
20260906002130 94 77 0.0 0.0 0.00 0.00 0.00 55 1011.3
20260906001630 95 77 0.0 0.0 0.00 0.00 0.00 57 1011.2
20260906001130 95 77 0.0 1.7 0.00 0.00 0.00 54 1011.2
20260906000630 96 76 0.0 1.7 0.00 0.00 0.00 52 1011.2
20260906000130 96 76 0.0 1.7 0.00 0.00 0.00 51 1011.1
20260905235630 96 100 0.0 0.9 0.00 0.00 0.00 51 1011.0
20260905235130 97 52 0.0 1.7 0.00 0.00 0.00 50 1011.1
20260905234630 97 46 0.0 0.0 0.00 0.00 0.00 50 1011.1
20260905234130 97 46 0.0 0.0 0.00 0.00 0.00 50 1011.1
20260905233630 97 46 0.0 0.9 0.00 0.00 0.00 49 1011.0
20260905233130 98 46 0.0 0.9 0.00 0.00 0.00 49 1011.0
20260905232630 98 46 0.0 0.9 0.00 0.00 0.00 48 1011.0
20260905232130 98 46 0.0 0.9 0.00 0.00 0.00 48 1010.9
20260905231630 98 46 0.9 2.6 0.00 0.00 0.00 49 1010.7
20260905231130 98 17 0.9 2.6 0.00 0.00 0.00 48 1010.7
20260905230630 99 144 0.9 3.5 0.00 0.00 0.00 48 1010.8
20260905230130 99 34 0.0 2.6 0.00 0.00 0.00 49 1010.8
20260905225630 99 54 0.9 1.7 0.00 0.00 0.00 48 1010.7
20260905225130 99 75 0.9 2.6 0.00 0.00 0.00 47 1010.6
20260905224630 100 54 0.9 2.6 0.00 0.00 0.00 47 1010.7
20260905224130 100 77 0.9 6.1 0.00 0.00 0.00 46 1010.7
20260905223630 100 78 0.9 2.6 0.00 0.00 0.00 45 1010.7
20260905223130 101 4 0.9 2.6 0.00 0.00 0.00 45 1010.8
20260905222630 101 4 1.7 2.6 0.00 0.00 0.00 45 1010.8
20260905222130 101 0 1.7 7.8 0.00 0.00 0.00 44 1010.8
20260905221630 102 89 0.9 4.3 0.00 0.00 0.00 45 1010.9
20260905221130 102 86 1.7 3.5 0.00 0.00 0.00 43 1011.0
20260905220630 102 220 1.7 2.6 0.00 0.00 0.00 43 1010.9
20260905220130 103 125 0.9 2.6 0.00 0.00 0.00 43 1011.1
20260905215630 103 64 1.7 2.6 0.00 0.00 0.00 44 1011.2
20260905215130 103 49 1.7 3.5 0.00 0.00 0.00 43 1011.3
20260905214630 103 16 0.9 3.5 0.00 0.00 0.00 42 1011.3
20260905214130 103 149 1.7 5.2 0.00 0.00 0.00 43 1011.3
20260905213630 103 75 1.7 6.1 0.00 0.00 0.00 43 1011.3
20260905213130 103 98 1.7 4.3 0.00 0.00 0.00 43 1011.4
20260905212630 102 103 2.6 4.3 0.00 0.00 0.00 44 1011.4
20260905212130 102 72 2.6 7.0 0.00 0.00 0.00 44 1011.4
20260905211630 103 61 2.6 5.2 0.00 0.00 0.00 43 1011.5
20260905211130 102 129 2.6 6.1 0.00 0.00 0.00 43 1011.5
20260905210630 103 65 1.7 7.0 0.00 0.00 0.00 44 1011.5
20260905210130 103 321 1.7 2.6 0.00 0.00 0.00 45 1011.5
20260905205630 102 221 2.6 7.0 0.00 0.00 0.00 45 1011.6
20260905205130 102 268 1.7 4.3 0.00 0.00 0.00 44 1011.4
20260905204630 102 77 1.7 3.5 0.00 0.00 0.00 44 1011.6
20260905204130 102 311 2.6 5.2 0.00 0.00 0.00 45 1011.6
20260905203630 102 173 3.5 7.8 0.00 0.00 0.00 44 1011.7
20260905203131 102 189 2.6 9.6 0.00 0.00 0.00 45 1011.7
20260905202630 103 359 1.7 4.3 0.00 0.00 0.00 45 1011.8
20260905202130 102 164 2.6 7.8 0.00 0.00 0.00 44 1011.9
20260905201631 102 179 3.5 9.6 0.00 0.00 0.00 44 1011.9
20260905201131 103 223 3.5 8.7 0.00 0.00 0.00 44 1011.9
20260905200631 103 131 2.6 6.1 0.00 0.00 0.00 44 1011.8
20260905200131 103 108 1.7 4.3 0.00 0.00 0.00 45 1011.9
20260905195631 102 125 2.6 7.0 0.00 0.00 0.00 45 1012.0
20260905195131 102 103 2.6 7.8 0.00 0.00 0.00 45 1012.0
20260905194631 102 348 1.7 4.3 0.00 0.00 0.00 44 1012.2
20260905194131 101 86 1.7 3.5 0.00 0.00 0.00 46 1012.3
20260905193631 101 151 1.7 3.5 0.00 0.00 0.00 46 1012.3
20260905193131 101 204 1.7 5.2 0.00 0.00 0.00 46 1012.5
20260905192631 102 224 2.6 7.8 0.00 0.00 0.00 46 1012.5
20260905192131 101 278 3.5 7.0 0.00 0.00 0.00 47 1012.6
20260905191631 101 140 3.5 7.8 0.00 0.00 0.00 48 1012.7
20260905191131 102 176 2.6 7.0 0.00 0.00 0.00 47 1012.7
20260905190631 102 212 2.6 4.3 0.00 0.00 0.00 47 1012.9
20260905190131 101 313 3.5 6.1 0.00 0.00 0.00 48 1013.1
20260905185631 101 145 3.5 7.0 0.00 0.00 0.00 48 1013.0
20260905185131 101 131 3.5 7.0 0.00 0.00 0.00 48 1013.2
20260905184631 100 217 3.5 7.8 0.00 0.00 0.00 49 1013.2
20260905184131 101 86 2.6 8.7 0.00 0.00 0.00 48 1013.2
20260905183631 101 88 2.6 6.1 0.00 0.00 0.00 48 1013.3
20260905183131 100 115 2.6 8.7 0.00 0.00 0.00 49 1013.4
20260905182631 100 247 2.6 7.8 0.00 0.00 0.00 49 1013.5
20260905182131 100 203 2.6 7.0 0.00 0.00 0.00 51 1013.6
20260905181631 100 65 3.5 7.0 0.00 0.00 0.00 49 1013.7
20260905181131 100 110 3.5 7.8 0.00 0.00 0.00 51 1013.6
20260905180631 100 161 2.6 7.0 0.00 0.00 0.00 50 1013.7
20260905180131 100 209 2.6 6.1 0.00 0.00 0.00 50 1013.8
20260905175631 100 70 2.6 4.3 0.00 0.00 0.00 52 1013.9
20260905175131 99 2 2.6 6.1 0.00 0.00 0.00 53 1013.8
20260905174631 99 162 2.6 5.2 0.00 0.00 0.00 52 1013.9
20260905174131 99 14 2.6 4.3 0.00 0.00 0.00 52 1014.0
20260905173631 99 127 2.6 7.8 0.00 0.00 0.00 51 1014.0
20260905173131 101 127 1.7 7.8 0.00 0.00 0.00 50 1014.1
20260905172631 101 162 0.9 2.6 0.00 0.00 0.00 53 1014.0
20260905172131 100 226 1.7 3.5 0.00 0.00 0.00 54 1014.0
20260905171631 99 307 1.7 2.6 0.00 0.00 0.00 54 1014.1
20260905171131 99 359 2.6 5.2 0.00 0.00 0.00 53 1014.2
20260905170631 98 150 3.5 5.2 0.00 0.00 0.00 56 1014.4
20260905170131 99 98 2.6 7.0 0.00 0.00 0.00 54 1014.5
20260905165631 99 181 1.7 3.5 0.00 0.00 0.00 56 1014.5
20260905165131 99 55 1.7 5.2 0.00 0.00 0.00 56 1014.6
20260905164631 99 106 1.7 4.3 0.00 0.00 0.00 56 1014.7
20260905164131 98 295 1.7 4.3 0.00 0.00 0.00 58 1014.7
20260905163631 98 27 1.7 4.3 0.00 0.00 0.00 59 1014.6
20260905163131 98 86 1.7 5.2 0.00 0.00 0.00 58 1014.8
20260905162631 98 0 1.7 2.6 0.00 0.00 0.00 59 1014.7
20260905162131 97 15 1.7 4.3 0.00 0.00 0.00 59 1014.6
20260905161631 97 28 1.7 3.5 0.00 0.00 0.00 59 1014.7
20260905161131 97 1 1.7 2.6 0.00 0.00 0.00 60 1014.9
20260905160631 97 32 1.7 4.3 0.00 0.00 0.00 61 1014.8
20260905160131 97 71 1.7 2.6 0.00 0.00 0.00 61 1014.8
20260905155631 96 49 1.7 6.1 0.00 0.00 0.00 62 1014.9
20260905155131 97 113 0.9 4.3 0.00 0.00 0.00 61 1015.0
20260905154631 96 64 0.9 3.5 0.00 0.00 0.00 63 1014.9
20260905154131 96 18 0.9 2.6 0.00 0.00 0.00 64 1014.8
20260905153631 96 20 0.9 1.7 0.00 0.00 0.00 64 1014.8
20260905153131 95 20 0.9 1.7 0.00 0.00 0.00 65 1014.9
20260905152631 94 20 0.9 1.7 0.00 0.00 0.00 65 1014.8
20260905152131 94 101 0.9 3.5 0.00 0.00 0.00 66 1014.8
20260905151631 93 357 0.9 2.6 0.00 0.00 0.00 67 1014.8
20260905151131 93 25 1.7 3.5 0.00 0.00 0.00 68 1014.9
20260905150631 92 105 0.9 3.5 0.00 0.00 0.00 68 1014.9
20260905150131 92 55 0.0 2.6 0.00 0.00 0.00 70 1015.0
20260905145631 92 272 0.9 0.9 0.00 0.00 0.00 72 1015.1
20260905145131 91 257 0.9 1.7 0.00 0.00 0.00 73 1015.1
20260905144631 91 238 0.9 2.6 0.00 0.00 0.00 73 1015.0
20260905144131 90 164 0.9 2.6 0.00 0.00 0.00 75 1015.0
20260905143631 89 1 0.0 1.7 0.00 0.00 0.00 76 1015.0
20260905143131 88 1 0.0 1.7 0.00 0.00 0.00 78 1015.1
20260905142631 88 1 0.0 0.9 0.00 0.00 0.00 79 1014.9
20260905142131 87 44 0.0 2.6 0.00 0.00 0.00 80 1014.8
20260905141631 87 62 0.0 2.6 0.00 0.00 0.00 81 1014.8
20260905141131 86 211 0.0 0.9 0.00 0.00 0.00 83 1015.0
20260905140631 85 211 0.0 1.7 0.00 0.00 0.00 83 1015.1
20260905140131 85 216 0.0 0.9 0.00 0.00 0.00 84 1015.1
20260905135631 84 216 0.0 0.9 0.00 0.00 0.00 86 1015.1
20260905135131 83 216 0.0 0.9 0.00 0.00 0.00 87 1015.0
20260905134631 82 216 0.0 0.9 0.00 0.00 0.00 89 1014.9
20260905134131 82 216 0.0 1.7 0.00 0.00 0.00 89 1014.9
20260905133631 80 217 0.0 0.0 0.00 0.00 0.00 92 1014.8
20260905133131 79 217 0.0 0.0 0.00 0.00 0.00 93 1014.8
20260905132631 78 217 0.0 0.0 0.00 0.00 0.00 94 1014.8
20260905132131 77 217 0.0 0.0 0.00 0.00 0.00 94 1014.6
20260905131631 77 217 0.0 0.0 0.00 0.00 0.00 94 1014.7
20260905131131 76 217 0.0 0.0 0.00 0.00 0.00 95 1014.6
20260905130631 76 217 0.0 0.0 0.00 0.00 0.00 95 1014.6
20260905130131 75 217 0.0 0.0 0.00 0.00 0.00 95 1014.6
20260905125631 75 217 0.0 0.0 0.00 0.00 0.00 96 1014.7
20260905125131 75 217 0.0 0.0 0.00 0.00 0.00 96 1014.7
20260905124631 74 217 0.0 0.0 0.00 0.00 0.00 96 1014.8
20260905124131 74 217 0.0 0.0 0.00 0.00 0.00 96 1014.7
20260905123631 74 217 0.0 0.0 0.00 0.00 0.00 96 1014.8
20260905123131 73 217 0.0 0.0 0.00 0.00 0.00 96 1014.8
20260905122631 73 217 0.0 0.0 0.00 0.00 0.00 96 1014.7
20260905122131 73 217 0.0 0.0 0.00 0.00 0.00 96 1014.7
20260905121631 73 217 0.0 0.0 0.00 0.00 0.00 96 1014.6
20260905121131 72 217 0.0 0.0 0.00 0.00 0.00 95 1014.6
20260905120631 72 217 0.0 0.0 0.00 0.00 0.00 95 1014.6
20260905120131 72 217 0.0 0.0 0.00 0.00 0.00 95 1014.5
20260905115631 73 217 0.0 0.0 0.00 0.00 0.00 95 1014.5
20260905115131 73 217 0.0 0.0 0.00 0.00 0.00 95 1014.5
20260905114631 73 217 0.0 0.0 0.00 0.00 0.00 95 1014.5
20260905114131 73 217 0.0 0.0 0.00 0.00 0.00 96 1014.4
20260905113631 73 217 0.0 0.0 0.00 0.00 0.00 95 1014.3
20260905113131 73 217 0.0 0.0 0.00 0.00 0.00 95 1014.3
20260905112631 73 217 0.0 0.0 0.00 0.00 0.00 95 1014.3
20260905112131 73 217 0.0 0.0 0.00 0.00 0.00 95 1014.3
20260905111631 73 217 0.0 0.0 0.00 0.00 0.00 95 1014.3
20260905111131 73 217 0.0 0.0 0.00 0.00 0.00 95 1014.1
20260905110631 74 217 0.0 0.0 0.00 0.00 0.00 95 1014.1
20260905110131 74 217 0.0 0.0 0.00 0.00 0.00 95 1014.1
20260905105631 74 217 0.0 0.0 0.00 0.00 0.00 95 1014.1
20260905105131 74 217 0.0 0.0 0.00 0.00 0.00 95 1014.0
20260905104631 74 217 0.0 0.0 0.00 0.00 0.00 95 1014.0
20260905104131 74 217 0.0 0.0 0.00 0.00 0.00 95 1013.9
20260905103631 74 217 0.0 0.0 0.00 0.00 0.00 95 1013.9
20260905103131 74 217 0.0 0.0 0.00 0.00 0.00 95 1013.9
20260905102631 74 217 0.0 0.0 0.00 0.00 0.00 95 1013.9
20260905102131 74 217 0.0 0.0 0.00 0.00 0.00 95 1013.9
20260905101631 74 217 0.0 0.0 0.00 0.00 0.00 95 1014.0
20260905101131 74 217 0.0 0.0 0.00 0.00 0.00 95 1014.0
20260905100631 74 217 0.0 0.0 0.00 0.00 0.00 95 1013.9
20260905100131 74 217 0.0 0.0 0.00 0.00 0.00 95 1014.0
20260905095631 74 217 0.0 0.0 0.00 0.00 0.00 95 1014.0
20260905095131 74 217 0.0 0.0 0.00 0.00 0.00 95 1014.0
20260905094631 74 217 0.0 0.0 0.00 0.00 0.00 95 1013.9
20260905094131 74 217 0.0 0.9 0.00 0.00 0.00 95 1013.9
20260905093631 74 217 0.0 2.6 0.00 0.00 0.00 95 1014.0
20260905093131 74 215 0.0 0.0 0.00 0.00 0.00 95 1014.0
20260905092631 74 215 0.0 0.9 0.00 0.00 0.00 95 1013.8
20260905092131 74 215 0.0 0.0 0.00 0.00 0.00 95 1013.8
20260905091631 74 215 0.0 0.0 0.00 0.00 0.00 95 1013.9
20260905091132 74 215 0.0 1.7 0.00 0.00 0.00 95 1013.9
20260905090631 74 215 0.0 0.0 0.00 0.00 0.00 95 1013.8
20260905090131 74 215 0.0 0.0 0.00 0.00 0.00 95 1013.8
20260905085631 74 215 0.0 0.0 0.00 0.00 0.00 95 1013.8
20260905085131 74 215 0.0 0.0 0.00 0.00 0.00 95 1013.8
20260905084631 74 215 0.0 0.0 0.00 0.00 0.00 95 1013.8
20260905084131 74 215 0.0 0.0 0.00 0.00 0.00 95 1013.7
20260905083631 74 215 0.0 0.0 0.00 0.00 0.00 95 1013.8
20260905083131 74 215 0.0 0.9 0.00 0.00 0.00 95 1013.8
20260905082631 74 215 0.9 0.9 0.00 0.00 0.00 94 1013.7
20260905082131 74 215 0.9 2.6 0.00 0.00 0.00 94 1013.8
20260905081631 74 215 0.0 1.7 0.00 0.00 0.00 94 1013.8
20260905081131 74 215 0.0 0.9 0.00 0.00 0.00 94 1013.7
20260905080631 74 215 0.0 0.0 0.00 0.00 0.00 94 1013.6
20260905080131 74 215 0.0 0.0 0.00 0.00 0.00 94 1013.7
20260905075631 74 215 0.0 0.0 0.00 0.00 0.00 94 1013.8
20260905075131 75 215 0.0 0.0 0.00 0.00 0.00 94 1013.7
20260905074631 75 215 0.0 0.0 0.00 0.00 0.00 94 1013.8
20260905074131 75 215 0.0 0.0 0.00 0.00 0.00 94 1013.8
20260905073631 75 215 0.0 0.0 0.00 0.00 0.00 94 1013.8
20260905073132 75 215 0.0 0.0 0.00 0.00 0.00 95 1013.8
20260905072631 75 215 0.0 0.9 0.00 0.00 0.00 95 1013.8
20260905072132 75 215 0.9 1.7 0.00 0.00 0.00 94 1013.8
20260905071631 75 215 0.9 2.6 0.00 0.00 0.00 95 1014.0
20260905071132 75 215 0.9 3.5 0.00 0.00 0.00 95 1014.0
20260905070632 76 213 0.9 1.7 0.00 0.00 0.00 94 1013.8
20260905070132 76 213 0.9 1.7 0.00 0.00 0.00 94 1013.9
20260905065632 76 213 0.0 1.7 0.00 0.00 0.00 93 1013.7
20260905065132 76 213 0.0 1.7 0.00 0.00 0.00 92 1013.8
20260905064632 76 213 0.9 0.9 0.00 0.00 0.00 91 1013.8
20260905064132 76 213 0.0 1.7 0.00 0.00 0.00 91 1013.8
20260905063632 76 213 0.0 0.9 0.00 0.00 0.00 91 1013.9
20260905063132 76 213 0.0 0.9 0.00 0.00 0.00 91 1013.8
20260905062632 76 213 0.0 0.9 0.00 0.00 0.00 92 1013.7
20260905062132 76 213 0.0 1.7 0.00 0.00 0.00 92 1013.9
20260905061632 76 213 0.0 0.0 0.00 0.00 0.00 92 1013.9
20260905061132 76 213 0.0 0.0 0.00 0.00 0.00 93 1013.9
20260905060632 76 213 0.0 0.0 0.00 0.00 0.00 93 1013.9
20260905060132 76 213 0.0 0.9 0.00 0.00 0.00 92 1013.9
20260905055632 77 213 0.0 0.9 0.00 0.00 0.00 92 1013.8
20260905055132 77 213 0.0 0.0 0.00 0.00 0.00 93 1013.9
20260905054632 77 213 0.9 0.9 0.00 0.00 0.00 92 1013.9
20260905054132 77 213 0.9 2.6 0.00 0.00 0.00 93 1013.8
20260905053632 77 213 0.0 1.7 0.00 0.00 0.00 92 1013.9
20260905053132 77 213 1.7 1.7 0.00 0.00 0.00 92 1014.0
20260905052632 77 213 1.7 5.2 0.00 0.00 0.00 92 1014.0
20260905052132 78 212 0.0 5.2 0.00 0.00 0.00 90 1014.0
20260905051632 77 82 0.0 0.0 0.00 0.00 0.00 88 1013.7
20260905051132 78 82 0.0 0.0 0.00 0.00 0.00 87 1013.8
20260905050632 78 82 0.0 0.0 0.00 0.00 0.00 89 1013.7
20260905050132 78 82 0.0 0.0 0.00 0.00 0.00 89 1013.7
20260905045632 78 82 0.0 0.0 0.00 0.00 0.00 89 1013.7
20260905045132 79 82 0.0 0.0 0.00 0.00 0.00 88 1013.8
20260905044632 79 82 0.0 0.0 0.00 0.00 0.00 87 1013.7
20260905044132 80 82 0.0 0.0 0.00 0.00 0.00 88 1013.7
20260905043632 80 82 0.0 0.0 0.00 0.00 0.00 88 1013.8
20260905043132 80 82 0.0 0.0 0.00 0.00 0.00 88 1013.8
20260905042632 80 82 0.0 0.0 0.00 0.00 0.00 86 1013.8
20260905042132 81 82 0.0 0.0 0.00 0.00 0.00 83 1013.9
20260905041632 81 82 0.0 0.0 0.00 0.00 0.00 83 1013.9
20260905041132 81 82 0.0 0.0 0.00 0.00 0.00 82 1013.9
20260905040632 81 82 0.0 0.0 0.00 0.00 0.00 81 1014.0
20260905040132 80 82 0.0 0.0 0.00 0.00 0.00 82 1014.0
20260905035632 80 82 0.0 0.0 0.00 0.00 0.00 84 1014.0
20260905035132 80 82 0.0 0.0 0.00 0.00 0.00 83 1013.9
20260905034632 80 82 0.0 0.0 0.00 0.00 0.00 85 1013.9
20260905034132 80 82 0.0 0.0 0.00 0.00 0.00 84 1013.9
20260905033632 80 82 0.9 0.9 0.00 0.00 0.00 84 1014.0
20260905033132 80 82 0.9 1.7 0.00 0.00 0.00 85 1014.0
20260905032632 80 82 0.9 1.7 0.00 0.00 0.00 84 1014.0
20260905032132 80 82 0.0 1.7 0.00 0.00 0.00 84 1014.1
20260905031632 81 83 0.0 0.9 0.00 0.00 0.00 82 1014.1
20260905031132 81 83 0.0 0.0 0.00 0.00 0.00 83 1014.1
20260905030632 81 83 0.0 0.0 0.00 0.00 0.00 84 1014.0
20260905030132 81 83 0.0 0.9 0.00 0.00 0.00 84 1014.0
20260905025632 82 83 0.0 0.9 0.00 0.00 0.00 84 1014.1
20260905025132 82 83 0.0 0.0 0.00 0.00 0.00 83 1014.1
20260905024632 82 83 0.0 0.0 0.00 0.00 0.00 82 1014.1
20260905024132 82 83 0.0 0.0 0.00 0.00 0.00 80 1014.2
20260905023632 82 83 0.0 0.0 0.00 0.00 0.00 79 1014.1
20260905023132 82 83 0.0 0.9 0.00 0.00 0.00 79 1014.2
20260905022632 83 83 0.0 0.9 0.00 0.00 0.00 81 1014.3
20260905022132 83 83 0.0 0.9 0.00 0.00 0.00 79 1014.3
20260905021632 84 83 0.0 0.0 0.00 0.00 0.00 79 1014.3
20260905021132 84 83 0.9 1.7 0.00 0.00 0.00 79 1014.3
20260905020632 84 82 0.9 1.7 0.00 0.00 0.00 75 1014.2
20260905020132 83 79 0.0 2.6 0.00 0.00 0.00 77 1014.2
20260905015632 83 77 0.0 1.7 0.00 0.00 0.00 79 1014.2
20260905015132 83 77 0.9 1.7 0.00 0.00 0.00 81 1014.3
20260905014632 83 106 0.0 1.7 0.00 0.00 0.00 82 1014.2
20260905014132 84 105 0.0 0.0 0.00 0.00 0.00 79 1014.1
20260905013632 84 105 0.0 1.7 0.00 0.00 0.00 78 1014.0
20260905013132 85 98 0.0 0.9 0.00 0.00 0.00 75 1014.0
20260905012632 85 98 0.0 2.6 0.00 0.00 0.00 75 1014.0
20260905012132 85 96 0.0 0.9 0.00 0.00 0.00 75 1014.1
20260905011632 85 94 0.9 1.7 0.00 0.00 0.00 75 1014.1
20260905011132 85 71 0.9 2.6 0.00 0.00 0.00 74 1014.0
20260905010632 85 139 0.9 1.7 0.00 0.00 0.00 73 1014.1
20260905010132 86 91 0.9 3.5 0.00 0.00 0.00 74 1014.1
20260905005632 86 101 0.9 2.6 0.00 0.00 0.00 72 1014.2
20260905005132 87 177 0.0 1.7 0.00 0.00 0.00 71 1014.1
20260905004632 87 179 0.9 0.9 0.00 0.00 0.00 69 1014.1